[[{"header":{"parameterUnit":"m.s-1","parameterCategory":1,"la1":30.2991,"la2":30.254,"lo1":-89.0895,"lo2":-89.0444,"dy":0.0017,"dx":0.0017,"nx":28,"ny":28,"refTime":"2024-05-10T03:00:00:Z","depth":0,"parameterNumber":2,"parameterNumberName":"U-component_of_WINDS"},"data":[0,0,0,0,0,0,0,0,0,0,0,0,0,0,0,0,0,0,0,0,0,0,0,0,0,0,0,0,0,0,0,0,0,0,0,0,0,0,0,0,0,0,0,0,0,0,0,0,0,0,0,0,0,0,0,0,0,0,-0.0093,-0.0092,0,0.0024,0.0025,0.0026,0.0114,0.0115,0.0116,0.0117,0.0238,0.0241,0.0243,0,0,0,0,0,0,0,0,0,0,0,0,0,-0.0239,-0.0236,-0.0093,-0.0092,-0.009,0.0023,0.0025,0.0027,0.0114,0.0115,0.0116,0.0117,0.0237,0.024,0.0243,0,0,0,0,0,0,0,0,0,0,0,0,0,-0.0154,-0.0236,-0.0093,-0.0033,-0.0026,0.0023,0.0025,0.0027,0.0114,0.0115,0.0116,0.0118,0.0236,0.024,0.0244,0.0243,0,0,0.0255,0.0257,0,0,0,0,0,0,0,0,-0.0159,-0.0149,-0.0043,-0.0037,-0.0029,0.0056,0.0018,0.0099,0.0114,0.0061,0.0117,0.0118,0.0177,0.0185,0.0205,0.0249,0.0254,0.0255,0.0258,0.0259,0.026,0,0,0,0,0,0,0,-0.0165,-0.0153,-0.0047,-0.0042,-0.0033,-0.0011,0.0002,0.0034,0.0111,0.0066,0.0072,0.0085,0.0181,0.0201,0.0208,0.0256,0.0255,0.0259,0.0261,0.0262,0.0304,0.0303,0,0,0,0,0,0,-0.018,-0.0159,-0.0051,-0.0043,-0.0093,-0.0009,0.0006,0.0027,0.0111,0.0124,0.0084,0.0088,0.0194,0.0204,0.0213,0.0217,0.0259,0.0263,0.0265,0.0305,0.0304,0.0303,0,0,0,0,0,0,-0.0184,-0.0172,-0.0055,-0.0099,-0.0083,-0.0008,0.0015,0.0029,0.0049,0.0124,0.0138,0.009,0.0195,0.0208,0.0234,0.0222,0.0264,0.0268,0.0306,0.0305,0.0303,0.0224,0,0,0,0,0,0,-0.0189,-0.0173,-0.0173,-0.01,-0.0081,-0.0036,0.0015,0.003,0.0055,0.0063,0.0134,0.0147,0.0197,0.0228,0.0238,0.0228,0.0271,0.0308,0.0306,0.0304,0.0228,0.022,0.0213,0,0,0,0,0,-0.0194,-0.02,-0.0174,-0.0161,-0.0079,-0.0037,-0.0026,0.0031,0.0054,0.0055,0.0103,0.0145,0.0222,0.023,0.0242,0.0233,0.0309,0.0306,0.0304,0.0232,0.0222,0.0213,0,0,0,0,0,0,-0.0276,-0.0189,-0.0159,-0.0141,-0.0098,-0.0022,-0.002,0.0019,0.0058,0.0063,0.0133,0.0148,0.0168,0.0204,0.0211,0.0236,0.0271,0.027,0.0212,0.0203,0.0196,0.0186,0.0274,0,0,0,0,0,-0.0292,-0.0266,-0.0191,-0.0182,-0.0162,-0.0095,-0.0074,-0.0034,0.0015,0.0034,0.0084,0.013,0.0165,0.0186,0.0222,0.0234,0.0251,0.0234,0.0226,0.0219,0.0218,0.0226,0.0219,0.0294,0.0294,0.0294,0,0,-0.0325,-0.0274,-0.0261,-0.0197,-0.0158,-0.0133,-0.008,-0.0054,-0.0034,0.0038,0.0066,0.0104,0.016,0.0179,0.019,0.021,0.0201,0.0216,0.021,0.0213,0.0223,0.0216,0.021,0.0292,0.0293,0.0293,0,0,-0.0371,-0.033,-0.0319,-0.0281,-0.0223,-0.0179,-0.0176,-0.0107,-0.0079,-0.005,0.0004,0.003,0.0088,0.0125,0.0152,0.0119,0.0159,0.0129,0.0089,0.0096,0.009,0.0085,0.0073,0.0067,0.0128,0.0127,0.0127,0,-0.0419,-0.0378,-0.0318,-0.0296,-0.0269,-0.0203,-0.0192,-0.0158,-0.0091,-0.0074,-0.0054,0.002,0.0063,0.0091,0.0083,0.0103,0.0108,0.0121,0.0086,0.0082,0.0078,0.0067,0.0062,0.0123,0.0124,0.0124,0.0125,0,-0.044,-0.0413,-0.041,-0.0349,-0.0322,-0.0305,-0.0242,-0.0222,-0.0184,-0.0142,-0.0113,-0.006,-0.0012,-0.0002,0.0035,0.0031,0.0041,0.0073,0.0109,0.0066,0.0056,0.0053,0.0117,0.0119,0.012,0.0121,0,0,-0.0535,-0.0441,-0.0441,-0.0412,-0.0344,-0.0321,-0.0302,-0.0256,-0.024,-0.0196,-0.0178,-0.0131,-0.0101,-0.0071,-0.0029,-0.0022,-0.0053,0.0009,0.0011,-0.0005,-0.0055,-0.008,-0.0086,-0.0026,-0.0027,-0.0027,-0.006,0,-0.0572,-0.0533,-0.0478,-0.0458,-0.0432,-0.037,-0.0352,-0.0309,-0.0269,-0.024,-0.0196,-0.0164,-0.0127,-0.0108,-0.0099,-0.0052,-0.0062,-0.0048,-0.0009,-0.0008,-0.0026,-0.0091,-0.0117,-0.0151,-0.0063,-0.0064,-0.0064,0,-0.0609,-0.057,-0.0548,-0.0482,-0.0469,-0.0455,-0.0408,-0.0382,-0.0331,-0.0303,-0.027,-0.0224,-0.02,-0.0167,-0.0133,-0.0125,-0.0105,-0.008,-0.0079,-0.0074,-0.004,-0.0088,-0.016,-0.0166,-0.0069,-0.0069,-0.0069,0,-0.0682,-0.0623,-0.0602,-0.058,-0.0502,-0.0494,-0.0461,-0.0409,-0.0385,-0.0344,-0.0328,-0.0285,-0.0262,-0.023,-0.0174,-0.0155,-0.0146,-0.0109,-0.0122,-0.0124,-0.0123,-0.0124,-0.0194,-0.011,-0.011,-0.011,-0.011,0,-0.0729,-0.0718,-0.0634,-0.0621,-0.0607,-0.0544,-0.0532,-0.0493,-0.0447,-0.0426,-0.0368,-0.0349,-0.0276,-0.0249,-0.0205,-0.0184,-0.0173,-0.015,-0.0138,-0.0155,-0.0158,-0.0142,-0.0139,-0.0111,-0.0111,-0.011,-0.011,0,-0.0808,-0.0751,-0.0725,-0.0654,-0.0636,-0.0629,-0.0568,-0.0553,-0.051,-0.0484,-0.0474,-0.0406,-0.0371,-0.0311,-0.0259,-0.0229,-0.0217,-0.0197,-0.0234,-0.0228,-0.0245,-0.0244,-0.0307,-0.0313,-0.0225,-0.0225,-0.0226,0,-0.0842,-0.0832,-0.0761,-0.0743,-0.0712,-0.0684,-0.0659,-0.0596,-0.0573,-0.0515,-0.0508,-0.0468,-0.0433,-0.038,-0.0326,-0.0285,-0.0264,-0.0289,-0.0258,-0.0276,-0.0266,-0.0268,-0.0267,-0.0297,-0.0298,-0.0299,-0.03,0,-0.0909,-0.0881,-0.0849,-0.0807,-0.078,-0.0744,-0.0704,-0.0693,-0.0621,-0.0598,-0.0562,-0.0535,-0.0481,-0.0443,-0.0395,-0.0361,-0.0319,-0.031,-0.0311,-0.0329,-0.0352,-0.0341,-0.0255,-0.0309,-0.0308,-0.0307,-0.0307,-0.0307,-0.0967,-0.0955,-0.0904,-0.087,-0.0834,-0.0799,-0.0782,-0.0737,-0.0705,-0.0658,-0.0622,-0.0589,-0.0538,-0.047,-0.0438,-0.0411,-0.0391,-0.0393,-0.0393,-0.0395,-0.0402,-0.0356,-0.0401,-0.0401,-0.0401,-0.04,-0.04,0,-0.1031,-0.0995,-0.0964,-0.0912,-0.0885,-0.0848,-0.0803,-0.0783,-0.0755,-0.0711,-0.0678,-0.0637,-0.06,-0.0543,-0.0501,-0.049,-0.047,-0.0482,-0.0482,-0.0475,-0.0421,-0.0425,-0.0499,-0.0499,-0.0499,-0.0499,-0.0499,-0.0499,-0.1062,-0.1042,-0.1008,-0.0969,-0.0933,-0.09,-0.0878,-0.0845,-0.081,-0.0767,-0.0736,-0.0699,-0.065,-0.0605,-0.0569,-0.0553,-0.0541,-0.0559,-0.0537,-0.0488,-0.0479,-0.047,-0.0473,-0.0557,-0.0557,-0.0594,-0.0594,-0.0594]},{"header":{"parameterUnit":"m.s-1","parameterCategory":1,"la1":30.2991,"la2":30.254,"lo1":-89.0895,"lo2":-89.0444,"dy":0.0017,"dx":0.0017,"nx":28,"ny":28,"refTime":"2024-05-10T03:00:00:Z","depth":0,"parameterNumber":3,"parameterNumberName":"V-component_of_WINDS"},"data":[0,0,0,0,0,0,0,0,0,0,0,0,0,0,0,0,0,0,0,0,0,0,0,0,0,0,0,0,0,0,0,0,0,0,0,0,0,0,0,0,0,0,0,0,0,0,0,0,0,0,0,0,0,0,0,0,0,0,1.1738,1.1738,0,1.1717,1.1717,1.1717,1.1716,1.1716,1.1716,1.1716,1.1694,1.1693,1.1692,0,0,0,0,0,0,0,0,0,0,0,0,0,1.1774,1.1773,1.1738,1.1738,1.1737,1.1717,1.1717,1.1717,1.1716,1.1716,1.1716,1.1717,1.1694,1.1693,1.1692,0,0,0,0,0,0,0,0,0,0,0,0,0,1.1756,1.1773,1.1738,1.1734,1.1734,1.1717,1.1717,1.1717,1.1716,1.1716,1.1716,1.1717,1.1695,1.1693,1.1692,1.1677,0,0,1.1688,1.1688,0,0,0,0,0,0,0,0,1.1757,1.1755,1.1735,1.1735,1.1734,1.1719,1.1721,1.1703,1.1716,1.1723,1.1716,1.1717,1.1702,1.17,1.1696,1.1676,1.1675,1.1688,1.1688,1.1687,1.1687,0,0,0,0,0,0,0,1.1758,1.1756,1.173,1.1735,1.1734,1.1733,1.1731,1.1718,1.171,1.1722,1.1722,1.1719,1.1702,1.1697,1.1695,1.1675,1.1688,1.1687,1.1686,1.1686,1.1639,1.1639,0,0,0,0,0,0,1.1761,1.1757,1.173,1.1729,1.1747,1.1732,1.173,1.1724,1.1711,1.1709,1.1719,1.1719,1.1699,1.1696,1.1694,1.1674,1.1687,1.1686,1.1685,1.164,1.1639,1.1639,0,0,0,0,0,0,1.1761,1.1758,1.1731,1.1743,1.1739,1.1731,1.1724,1.1723,1.1718,1.1709,1.1707,1.1716,1.1699,1.1696,1.1681,1.1673,1.1685,1.1684,1.1641,1.164,1.1639,1.1635,0,0,0,0,0,0,1.1762,1.1759,1.1754,1.1743,1.1739,1.1719,1.1724,1.1723,1.1716,1.1716,1.1705,1.1703,1.1699,1.1683,1.168,1.1672,1.1683,1.1641,1.164,1.1639,1.1635,1.1634,1.1633,0,0,0,0,0,1.1764,1.1754,1.1753,1.175,1.1733,1.1719,1.1716,1.1712,1.1716,1.171,1.1703,1.1703,1.1675,1.1681,1.1678,1.1669,1.1642,1.164,1.1639,1.1636,1.1634,1.1633,0,0,0,0,0,0,1.1764,1.1752,1.1752,1.1738,1.1729,1.1719,1.1712,1.1711,1.1701,1.1701,1.1696,1.1693,1.1678,1.1672,1.168,1.1653,1.1658,1.1657,1.1657,1.1655,1.1654,1.1655,1.1682,0,0,0,0,0,1.1762,1.1753,1.1743,1.1732,1.1727,1.172,1.1714,1.1711,1.1702,1.1698,1.1691,1.1681,1.167,1.1662,1.1652,1.1635,1.1631,1.1627,1.1626,1.1624,1.1623,1.1611,1.1608,1.1635,1.1635,1.1635,0,0,1.1759,1.1751,1.1746,1.1731,1.1724,1.1713,1.1717,1.1706,1.1697,1.1697,1.1681,1.1675,1.1664,1.1648,1.164,1.1642,1.1614,1.1623,1.1622,1.1621,1.1609,1.1607,1.1604,1.1634,1.1635,1.1635,0,0,1.1747,1.1741,1.173,1.1723,1.1712,1.1707,1.1704,1.1693,1.1689,1.1674,1.1672,1.1661,1.1642,1.1634,1.1627,1.1609,1.1608,1.1606,1.1598,1.1586,1.1584,1.1582,1.1573,1.1571,1.1604,1.1604,1.1604,0,1.1744,1.1729,1.1724,1.1713,1.1705,1.1704,1.1691,1.1684,1.167,1.1665,1.1668,1.1642,1.1635,1.1615,1.1611,1.1606,1.1601,1.1607,1.1585,1.1583,1.1581,1.1572,1.157,1.1604,1.1604,1.1604,1.1604,0,1.1724,1.1713,1.1706,1.1692,1.1684,1.1672,1.1664,1.1657,1.1654,1.1648,1.1631,1.1622,1.1608,1.1603,1.1601,1.1582,1.1584,1.1586,1.1591,1.1578,1.157,1.1567,1.1603,1.1603,1.1603,1.1603,0,0,1.1713,1.1696,1.1693,1.1685,1.1672,1.1663,1.165,1.1636,1.1629,1.1619,1.1606,1.1589,1.159,1.1582,1.1579,1.1569,1.1552,1.1572,1.1571,1.1567,1.1528,1.1526,1.1522,1.1552,1.1551,1.1551,1.1528,0,1.1699,1.1676,1.1671,1.1651,1.1639,1.1637,1.1625,1.1615,1.1608,1.1597,1.159,1.1577,1.158,1.1575,1.1565,1.1557,1.1544,1.1558,1.1539,1.1538,1.154,1.1518,1.1516,1.1496,1.1526,1.1525,1.1525,0,1.1679,1.1668,1.1647,1.1633,1.1628,1.1617,1.1603,1.1592,1.158,1.1576,1.1566,1.1563,1.1547,1.1554,1.1531,1.1541,1.1532,1.1526,1.1525,1.1522,1.153,1.1513,1.1489,1.1485,1.152,1.1521,1.1521,0,1.1671,1.165,1.1634,1.1628,1.1612,1.1604,1.1597,1.1585,1.1576,1.1564,1.1557,1.1543,1.1535,1.1523,1.1515,1.1521,1.1492,1.1499,1.1486,1.1486,1.148,1.148,1.1452,1.1477,1.1477,1.1477,1.1477,0,1.1655,1.1641,1.163,1.162,1.1604,1.1598,1.1582,1.1574,1.1563,1.155,1.1547,1.1535,1.1526,1.1513,1.1506,1.1487,1.1484,1.1479,1.1477,1.1478,1.1478,1.1472,1.1472,1.1476,1.1477,1.1477,1.1477,0,1.1643,1.1635,1.1617,1.1602,1.1598,1.1587,1.1574,1.1563,1.1556,1.154,1.1535,1.1524,1.1507,1.1499,1.1478,1.1474,1.1451,1.1451,1.1455,1.1454,1.1442,1.1442,1.1407,1.1401,1.1432,1.1431,1.1431,0,1.1633,1.1622,1.1606,1.1597,1.1589,1.1576,1.1566,1.1558,1.1549,1.1532,1.1522,1.1506,1.1492,1.1464,1.1454,1.1437,1.1435,1.1424,1.1433,1.1433,1.1432,1.1432,1.143,1.1422,1.1422,1.1422,1.1422,0,1.1614,1.161,1.1597,1.1582,1.157,1.1558,1.1545,1.1538,1.1528,1.1517,1.1499,1.1488,1.1466,1.1448,1.143,1.1422,1.1419,1.1419,1.1415,1.1415,1.1417,1.1413,1.1449,1.142,1.142,1.142,1.142,1.142,1.1602,1.1591,1.1577,1.1562,1.1551,1.1539,1.1528,1.1518,1.1504,1.1485,1.1481,1.1462,1.1447,1.1423,1.1413,1.1397,1.1399,1.1394,1.1392,1.139,1.1388,1.1421,1.1394,1.1394,1.1394,1.1394,1.1394,0,1.1582,1.1572,1.1558,1.154,1.1527,1.1526,1.1512,1.15,1.1484,1.147,1.1456,1.1434,1.1416,1.1403,1.1384,1.1374,1.1372,1.1369,1.1369,1.1366,1.1389,1.1393,1.137,1.137,1.137,1.137,1.137,1.137,1.157,1.1551,1.1545,1.152,1.151,1.1491,1.1483,1.1471,1.1459,1.1435,1.142,1.1412,1.1397,1.1377,1.136,1.1356,1.1348,1.1345,1.1341,1.1362,1.1365,1.1367,1.1371,1.1344,1.1344,1.1319,1.1319,1.1319]}]]